Regional Weather Roundup
Issued by NWS

Home | Current Version | Previous Version | Text Only | Print | Product List | Glossary On
Versions: 1 2 3 4 5 6 7 8 9 10 11 12 13 14 15 16 17 18 19 20 21 22 23 24 25 26 27 28 29 30 31 32 33 34 35 36 37 38 39 40 41 42 43 44 45 46 47 48 49 50
000
ASUS42 KFFC 300503
RWRGA
WEATHER ROUNDUP FOR GEORGIA
NATIONAL WEATHER SERVICE PEACHTREE CITY GA
100 AM EDT SAT MAY 30 2015

NOTE: "FAIR" INDICATES FEW OR NO CLOUDS BELOW 12,000 FEET WITH NO
SIGNIFICANT WEATHER AND/OR OBSTRUCTIONS TO VISIBILITY.

* = USE WITH CAUTION. THE STATIONS MARKED WITH AN ASTERISK MAY NOT
REPORT WEATHER SUCH AS PRECIPITATION, FOG, OR THUNDER AND ARE NOT
QUALITY CONTROLLED BY NWS.

THE REMARK "TC" DENOTES TEMPERATURE READING IN DEGREES CELSIUS.

GAZ001>058-300600-
NORTH GEORGIA

CITY           SKY/WX    TMP DP  RH WIND       PRES   REMARKS
ATLANTA        PTCLDY    71  60  68 CALM      30.16F
ATHENS         PTCLDY    67  63  87 CALM      30.17S
CHAMBLEE       CLEAR     66  62  87 CALM      30.16F
PEACHTREE CITY CLEAR     64  62  93 CALM      30.16F
ROME           PTCLDY    66  66 100 CALM      30.13F FOG
WEST ATLANTA   CLEAR     66  62  87 CALM      30.16S
GAINESVILLE    CLEAR     70  58  65 SE3       30.20F
CARTERSVILLE   CLEAR     64  62  93 SE3       30.16S


CITY           SKY/WX    TMP DP  RH WIND       PRES   REMARKS
DALTON*        PTCLDY    70  64  83 SE5       30.15F
MARIETTA       CLEAR     67  63  85 CALM      30.16F
BLAIRSVILLE*     N/A     61  54  78 CALM      30.22S HAZE
$$

GAZ059>098-102>109-300600-
CENTRAL GEORGIA

CITY           SKY/WX    TMP DP  RH WIND       PRES   REMARKS
AUGUSTA-BUSH   CLEAR     69  65  86 SE6       30.16S
AUGUSTA-DANIEL CLEAR     75  65  70 SE7       30.17F
COLUMBUS       CLEAR     70  61  73 CALM      30.12S
MACON          PTCLDY    68  64  87 CALM      30.14S
ROBINS AFB     PTCLDY    70  65  85 CALM      30.14S


CITY           SKY/WX    TMP DP  RH WIND       PRES   REMARKS
LAGRANGE*      CLEAR     67  67 100 CALM      30.14S
SYLVANIA*      CLEAR     70  69  96 CALM      30.17F
MILLEDGEVILLE* CLEAR     70  66  88 CALM      30.16S
$$

GAZ099>101-110>166-300600-
SOUTH GEORGIA

CITY           SKY/WX    TMP DP  RH WIND       PRES   REMARKS
SAVANNAH       CLEAR     72  68  87 E5        30.15F
VALDOSTA       CLEAR     72  67  84 CALM      30.13S
ALMA           CLOUDY    73  66  78 CALM      30.14F
FT STEWART     CLEAR     69  66  92 CALM      30.13S
ALBANY         CLEAR     74  62  66 SE8       30.14R
HUNTER AFB     CLEAR     73  70  89 VRB1      30.12F
MOODY AFB      PTCLDY    72  67  83 E5        30.12S
BRUNSWICK      CLEAR     70  68  94 CALM      30.13F


CITY           SKY/WX    TMP DP  RH WIND       PRES   REMARKS
BAINBRIDGE*    CLEAR     73  70  88 CALM      30.10S
MOULTRIE*      CLEAR     72  64  78 CALM      30.13F
VIDALIA*       CLOUDY    73  68  83 SE6       30.16S
WAYCROSS*      CLOUDY    72  70  92 E3        30.14S
DOUGLAS*       PTCLDY    72  66  83 E3        30.15F
$$


USA.gov is the U.S. government's official web portal to all federal, state and local government web resources and services.